User: anonymous   Login
Location: Unspecified
(0.0000°N, 0.0000°E)
Time: 14:42:34
(UTC+00:00)
Language:

Explorer 7 - Orbit

View from above orbital plane
View from above orbital plane
View from above satellite
View from above satellite

Ground track
Ground track

The orbit data is extracted from the following two-line orbital elements,

1 00022U 59009A   16045.17174020  .00003596  00000-0  30017-3 0  9992
2 00022  50.2849 331.7658 0144656 328.9978  30.2490 14.93217664988241
Epoch (UTC): 14 February 2016 04:07:18
Eccentricity: 0.0144656
inclination: 50.2849°
perigee height: 487 km
apogee height: 688 km
right ascension of ascending node: 331.7658°
argument of perigee: 328.9978°
revolutions per day: 14.93217664
mean anomaly at epoch: 30.2490°
orbit number at epoch: 98824

The dashed part of the orbit path shows where the satellite is in the earth's shadow,  

DLR